Back to catalog

SL-8 R/B

AliveLEO
NORAD 11427·ROCKET BODY·🇷🇺 Russia

Launched Jun 28, 1979 from Plesetsk Cosmodrome

Loading…

Next Passes (next 24 hours)

TLE

FreshSource: Space-Track

Epoch: Sep 14, 2026, 12:33 UTC

1 11427U 79060B   26257.52311903  .00000058  00000-0  27489-4 0  9990
2 11427  74.0144 283.5600 0020278 331.6143  28.3905 14.38915512472886

Track SL-8 R/B in real time with AllMySat

Download on the App Store